| time (UTC) | temp C | wind direction | speed KPH | gust KPH | rain 1hr cm | rain 24hr cm | rain mn cm | humidity % | barometer mb |
| 20260504184510 | 15 | 238 | 0.0 | 1.6 | 0.00 | 0.00 | 0.00 | 75 | 1012.2 |
| 20260504184012 | 15 | 239 | 0.0 | 0.0 | 0.00 | 0.00 | 0.00 | 75 | 1012.3 |
| 20260504183510 | 16 | 239 | 0.0 | 0.0 | 0.00 | 0.00 | 0.00 | 74 | 1012.3 |
| 20260504183009 | 16 | 238 | 0.0 | 0.0 | 0.00 | 0.00 | 0.00 | 73 | 1012.3 |
| 20260504182508 | 16 | 238 | 0.0 | 0.0 | 0.00 | 0.00 | 0.00 | 73 | 1012.3 |
| 20260504182010 | 16 | 238 | 0.0 | 0.0 | 0.00 | 0.00 | 0.00 | 72 | 1012.1 |
| 20260504181510 | 17 | 238 | 0.0 | 0.0 | 0.00 | 0.00 | 0.00 | 71 | 1012.2 |
| 20260504181007 | 17 | 238 | 0.0 | 0.0 | 0.00 | 0.00 | 0.00 | 70 | 1012.1 |
| 20260504180509 | 17 | 238 | 0.0 | 0.0 | 0.00 | 0.00 | 0.00 | 70 | 1012.1 |
| 20260504180007 | 17 | 238 | 0.0 | 0.0 | 0.00 | 0.00 | 0.00 | 69 | 1012.2 |
| 20260504175506 | 17 | 238 | 0.0 | 0.0 | 0.00 | 0.00 | 0.00 | 69 | 1012.2 |
| 20260504175006 | 17 | 233 | 0.0 | 0.0 | 0.00 | 0.00 | 0.00 | 68 | 1012.1 |
| 20260504174506 | 18 | 233 | 0.0 | 0.0 | 0.00 | 0.00 | 0.00 | 68 | 1012.2 |
| 20260504174007 | 18 | 233 | 0.0 | 1.6 | 0.00 | 0.00 | 0.00 | 67 | 1012.0 |
| 20260504173506 | 18 | 232 | 0.0 | 3.2 | 0.00 | 0.00 | 0.00 | 66 | 1012.0 |
| 20260504173006 | 18 | 246 | 0.0 | 3.2 | 0.00 | 0.00 | 0.00 | 66 | 1012.1 |
| 20260504172504 | 18 | 265 | 0.0 | 3.2 | 0.00 | 0.00 | 0.00 | 65 | 1012.1 |
| 20260504172004 | 18 | 266 | 0.0 | 6.4 | 0.00 | 0.00 | 0.00 | 64 | 1012.1 |
| 20260504171516 | 19 | 22 | 0.0 | 6.4 | 0.00 | 0.00 | 0.00 | 64 | 1012.1 |
| 20260504171005 | 19 | 229 | 0.0 | 3.2 | 0.00 | 0.00 | 0.00 | 63 | 1012.0 |
| 20260504170503 | 19 | 292 | 0.0 | 1.6 | 0.00 | 0.00 | 0.00 | 63 | 1012.1 |
| 20260504151057 | 21 | 144 | 3.2 | 11.3 | 0.00 | 0.00 | 0.00 | 52 | 1012.2 |
| 20260504150600 | 21 | 186 | 3.2 | 11.3 | 0.00 | 0.00 | 0.00 | 51 | 1012.0 |
| 20260504141053 | 22 | 191 | 4.8 | 12.9 | 0.00 | 0.00 | 0.00 | 50 | 1012.5 |
| 20260504140552 | 21 | 239 | 3.2 | 11.3 | 0.00 | 0.00 | 0.00 | 54 | 1012.5 |
| 20260504130545 | 20 | 265 | 1.6 | 9.7 | 0.00 | 0.00 | 0.00 | 55 | 1013.0 |
| 20260504110539 | 20 | 202 | 1.6 | 11.3 | 0.00 | 0.00 | 0.00 | 57 | 1013.7 |
| 20260504100532 | 19 | 246 | 3.2 | 9.7 | 0.00 | 0.00 | 0.00 | 63 | 1014.3 |
| 20260504081525 | 17 | 228 | 1.6 | 6.4 | 0.00 | 0.00 | 0.00 | 58 | 1014.3 |
| 20260504081017 | 17 | 211 | 3.2 | 11.3 | 0.00 | 0.00 | 0.00 | 56 | 1014.4 |
| 20260504080520 | 17 | 209 | 1.6 | 11.3 | 0.00 | 0.00 | 0.00 | 58 | 1014.3 |
| 20260504050548 | 13 | 127 | 0.0 | 6.4 | 0.00 | 0.00 | 0.00 | 62 | 1013.7 |
| 20260504045546 | 13 | 97 | 1.6 | 8.0 | 0.00 | 0.00 | 0.00 | 60 | 1013.5 |
| 20260504045044 | 13 | 53 | 1.6 | 9.7 | 0.00 | 0.00 | 0.00 | 60 | 1013.5 |
| 20260504044545 | 13 | 80 | 1.6 | 9.7 | 0.00 | 0.00 | 0.00 | 60 | 1013.3 |
| 20260504044045 | 13 | 80 | 1.6 | 8.0 | 0.00 | 0.00 | 0.00 | 60 | 1013.3 |
| 20260504043544 | 13 | 84 | 3.2 | 8.0 | 0.00 | 0.00 | 0.00 | 60 | 1013.4 |
| 20260504043044 | 13 | 76 | 1.6 | 4.8 | 0.00 | 0.00 | 0.00 | 60 | 1013.3 |
| 20260504042547 | 13 | 77 | 1.6 | 8.0 | 0.00 | 0.00 | 0.00 | 61 | 1013.2 |
| 20260504042048 | 13 | 55 | 1.6 | 8.0 | 0.00 | 0.00 | 0.00 | 61 | 1013.1 |
| 20260504041545 | 13 | 86 | 3.2 | 6.4 | 0.00 | 0.00 | 0.00 | 61 | 1013.1 |
| 20260504041041 | 13 | 81 | 3.2 | 9.7 | 0.00 | 0.00 | 0.00 | 61 | 1013.1 |
| 20260504040539 | 13 | 76 | 3.2 | 11.3 | 0.00 | 0.00 | 0.00 | 61 | 1013.1 |
| 20260504040038 | 13 | 76 | 3.2 | 9.7 | 0.00 | 0.00 | 0.00 | 61 | 1013.2 |
| 20260504035540 | 13 | 88 | 3.2 | 8.0 | 0.00 | 0.00 | 0.00 | 62 | 1013.3 |
| 20260504035036 | 13 | 82 | 3.2 | 8.0 | 0.00 | 0.00 | 0.00 | 62 | 1013.2 |
| 20260504034540 | 13 | 81 | 3.2 | 9.7 | 0.00 | 0.00 | 0.00 | 61 | 1013.3 |
| 20260504034034 | 13 | 90 | 3.2 | 9.7 | 0.00 | 0.00 | 0.00 | 61 | 1013.3 |
| 20260504033535 | 13 | 74 | 1.6 | 9.7 | 0.00 | 0.00 | 0.00 | 61 | 1013.5 |
| 20260504033034 | 13 | 99 | 1.6 | 9.7 | 0.00 | 0.00 | 0.00 | 61 | 1013.6 |
| 20260504032535 | 13 | 69 | 1.6 | 8.0 | 0.00 | 0.00 | 0.00 | 61 | 1013.7 |
| 20260504032033 | 13 | 52 | 1.6 | 4.8 | 0.00 | 0.00 | 0.00 | 61 | 1013.7 |
| 20260504031533 | 13 | 88 | 0.0 | 4.8 | 0.00 | 0.00 | 0.00 | 60 | 1013.8 |
| 20260504031032 | 13 | 79 | 0.0 | 6.4 | 0.00 | 0.00 | 0.00 | 61 | 1013.8 |
| 20260504030531 | 13 | 78 | 1.6 | 6.4 | 0.00 | 0.00 | 0.00 | 60 | 1013.9 |
| 20260504030039 | 13 | 53 | 1.6 | 4.8 | 0.00 | 0.00 | 0.00 | 60 | 1013.9 |
| 20260504025531 | 13 | 94 | 0.0 | 6.4 | 0.00 | 0.00 | 0.00 | 60 | 1013.9 |
| 20260504025032 | 13 | 95 | 3.2 | 6.4 | 0.00 | 0.00 | 0.00 | 60 | 1013.9 |
| 20260504024530 | 13 | 67 | 1.6 | 9.7 | 0.00 | 0.00 | 0.00 | 59 | 1013.9 |
| 20260504024034 | 13 | 81 | 3.2 | 9.7 | 0.00 | 0.00 | 0.00 | 59 | 1013.6 |
| 20260504023529 | 13 | 82 | 3.2 | 9.7 | 0.00 | 0.00 | 0.00 | 59 | 1013.6 |
| 20260504023031 | 13 | 90 | 3.2 | 9.7 | 0.00 | 0.00 | 0.00 | 59 | 1013.7 |
| 20260504022529 | 13 | 59 | 3.2 | 9.7 | 0.00 | 0.00 | 0.00 | 60 | 1013.8 |
| 20260504022028 | 13 | 91 | 3.2 | 9.7 | 0.00 | 0.00 | 0.00 | 60 | 1013.6 |
| 20260504021528 | 13 | 93 | 3.2 | 6.4 | 0.00 | 0.00 | 0.00 | 60 | 1013.7 |
| 20260504021029 | 13 | 88 | 1.6 | 6.4 | 0.00 | 0.00 | 0.00 | 60 | 1013.7 |
| 20260504020526 | 14 | 83 | 1.6 | 6.4 | 0.00 | 0.00 | 0.00 | 60 | 1013.7 |
| 20260504020026 | 14 | 92 | 1.6 | 9.7 | 0.00 | 0.00 | 0.00 | 60 | 1013.6 |
| 20260504015526 | 14 | 92 | 3.2 | 9.7 | 0.00 | 0.00 | 0.00 | 60 | 1013.7 |
| 20260504015030 | 14 | 84 | 1.6 | 6.4 | 0.00 | 0.00 | 0.00 | 60 | 1013.6 |
| 20260504014526 | 14 | 80 | 0.0 | 4.8 | 0.00 | 0.00 | 0.00 | 60 | 1013.6 |
| 20260504014028 | 14 | 76 | 1.6 | 4.8 | 0.00 | 0.00 | 0.00 | 59 | 1013.6 |
| 20260504013528 | 14 | 84 | 0.0 | 6.4 | 0.00 | 0.00 | 0.00 | 60 | 1013.6 |
| 20260504013025 | 14 | 85 | 3.2 | 6.4 | 0.00 | 0.00 | 0.00 | 59 | 1013.7 |
| 20260504012525 | 14 | 86 | 0.0 | 6.4 | 0.00 | 0.00 | 0.00 | 60 | 1013.6 |
| 20260504012023 | 14 | 86 | 1.6 | 6.4 | 0.00 | 0.00 | 0.00 | 59 | 1013.6 |
| 20260504011523 | 14 | 76 | 0.0 | 6.4 | 0.00 | 0.00 | 0.00 | 60 | 1013.5 |
| 20260504011023 | 14 | 82 | 1.6 | 6.4 | 0.00 | 0.00 | 0.00 | 59 | 1013.6 |
| 20260504010523 | 14 | 96 | 1.6 | 4.8 | 0.00 | 0.00 | 0.00 | 59 | 1013.5 |
| 20260504010022 | 14 | 150 | 0.0 | 3.2 | 0.00 | 0.00 | 0.00 | 59 | 1013.5 |
| 20260504005525 | 14 | 150 | 0.0 | 8.0 | 0.00 | 0.00 | 0.00 | 59 | 1013.4 |
| 20260504005020 | 14 | 151 | 0.0 | 11.3 | 0.00 | 0.00 | 0.00 | 59 | 1013.4 |
| 20260504004523 | 15 | 142 | 1.6 | 11.3 | 0.00 | 0.00 | 0.00 | 58 | 1013.4 |
| 20260504004019 | 15 | 46 | 0.0 | 8.0 | 0.00 | 0.00 | 0.00 | 58 | 1013.4 |
| 20260504003519 | 15 | 40 | 3.2 | 8.0 | 0.00 | 0.00 | 0.00 | 58 | 1013.3 |
| 20260504003019 | 15 | 278 | 1.6 | 8.0 | 0.00 | 0.00 | 0.00 | 58 | 1013.4 |
| 20260504002518 | 15 | 242 | 3.2 | 8.0 | 0.00 | 0.00 | 0.00 | 58 | 1013.4 |
| 20260504002017 | 15 | 277 | 0.0 | 4.8 | 0.00 | 0.00 | 0.00 | 58 | 1013.4 |
| 20260504001517 | 15 | 277 | 0.0 | 6.4 | 0.00 | 0.00 | 0.00 | 58 | 1013.3 |
| 20260504001015 | 15 | 271 | 1.6 | 8.0 | 0.00 | 0.00 | 0.00 | 57 | 1013.2 |
| 20260504000515 | 15 | 112 | 1.6 | 14.5 | 0.00 | 0.00 | 0.00 | 57 | 1013.2 |
| 20260504000013 | 15 | 80 | 4.8 | 24.1 | 0.00 | 0.00 | 0.00 | 56 | 1013.4 |
| 20260503235512 | 15 | 80 | 8.0 | 24.1 | 0.00 | 0.00 | 0.00 | 56 | 1013.1 |
| 20260503235013 | 15 | 47 | 6.4 | 14.5 | 0.00 | 0.00 | 0.00 | 56 | 1013.4 |
| 20260503234525 | 15 | 88 | 4.8 | 16.1 | 0.00 | 0.00 | 0.00 | 56 | 1013.3 |
| 20260503234011 | 15 | 94 | 4.8 | 17.7 | 0.00 | 0.00 | 0.00 | 56 | 1013.3 |
| 20260503233510 | 15 | 162 | 4.8 | 16.1 | 0.00 | 0.00 | 0.00 | 56 | 1013.3 |
| 20260503233010 | 15 | 55 | 6.4 | 16.1 | 0.00 | 0.00 | 0.00 | 56 | 1013.1 |
| 20260503232509 | 15 | 80 | 6.4 | 17.7 | 0.00 | 0.00 | 0.00 | 56 | 1013.3 |
| 20260503232009 | 15 | 86 | 4.8 | 14.5 | 0.00 | 0.00 | 0.00 | 56 | 1013.2 |
| 20260503231508 | 16 | 105 | 1.6 | 9.7 | 0.00 | 0.00 | 0.00 | 56 | 1013.3 |
| 20260503231013 | 16 | 281 | 1.6 | 9.7 | 0.00 | 0.00 | 0.00 | 56 | 1013.2 |
| 20260503230512 | 16 | 43 | 1.6 | 12.9 | 0.00 | 0.00 | 0.00 | 55 | 1013.2 |
| 20260503230008 | 16 | 5 | 6.4 | 12.9 | 0.00 | 0.00 | 0.00 | 56 | 1013.3 |
| 20260503225506 | 16 | 161 | 1.6 | 12.9 | 0.00 | 0.00 | 0.00 | 55 | 1013.3 |
| 20260503225006 | 16 | 360 | 3.2 | 12.9 | 0.00 | 0.00 | 0.00 | 55 | 1013.3 |
| 20260503224507 | 16 | 106 | 4.8 | 12.9 | 0.00 | 0.00 | 0.00 | 55 | 1013.3 |
| 20260503224005 | 16 | 13 | 3.2 | 14.5 | 0.00 | 0.00 | 0.00 | 55 | 1013.1 |
| 20260503223505 | 16 | 32 | 4.8 | 16.1 | 0.00 | 0.00 | 0.00 | 55 | 1013.2 |
| 20260503223004 | 16 | 61 | 3.2 | 16.1 | 0.00 | 0.00 | 0.00 | 55 | 1013.0 |
| 20260503222505 | 16 | 78 | 4.8 | 9.7 | 0.00 | 0.00 | 0.00 | 55 | 1013.1 |
| 20260503222002 | 16 | 190 | 3.2 | 16.1 | 0.00 | 0.00 | 0.00 | 54 | 1012.8 |
| 20260503221503 | 16 | 71 | 6.4 | 16.1 | 0.00 | 0.00 | 0.00 | 54 | 1013.0 |
| 20260503221002 | 16 | 88 | 4.8 | 16.1 | 0.00 | 0.00 | 0.00 | 54 | 1013.0 |
| 20260503220502 | 16 | 87 | 3.2 | 16.1 | 0.00 | 0.00 | 0.00 | 54 | 1013.0 |
| 20260503220104 | 16 | 94 | 6.4 | 12.9 | 0.00 | 0.00 | 0.00 | 54 | 1013.0 |
| 20260503215559 | 16 | 28 | 4.8 | 16.1 | 0.00 | 0.00 | 0.00 | 53 | 1013.0 |
| 20260503215100 | 16 | 313 | 3.2 | 16.1 | 0.00 | 0.00 | 0.00 | 53 | 1013.0 |
| 20260503214602 | 16 | 355 | 3.2 | 9.7 | 0.00 | 0.00 | 0.00 | 53 | 1013.0 |
| 20260503214104 | 16 | 5 | 3.2 | 16.1 | 0.00 | 0.00 | 0.00 | 53 | 1013.0 |
| 20260503213603 | 16 | 106 | 6.4 | 16.1 | 0.00 | 0.00 | 0.00 | 53 | 1013.1 |
| 20260503213112 | 16 | 63 | 3.2 | 11.3 | 0.00 | 0.00 | 0.00 | 53 | 1013.0 |
| 20260503212600 | 16 | 94 | 4.8 | 8.0 | 0.00 | 0.00 | 0.00 | 53 | 1013.0 |
| 20260503212059 | 17 | 78 | 3.2 | 17.7 | 0.00 | 0.00 | 0.00 | 53 | 1013.1 |
| 20260503211558 | 17 | 88 | 4.8 | 17.7 | 0.00 | 0.00 | 0.00 | 52 | 1013.0 |
| 20260503211058 | 17 | 360 | 4.8 | 12.9 | 0.00 | 0.00 | 0.00 | 52 | 1013.0 |
| 20260503210558 | 17 | 254 | 1.6 | 14.5 | 0.00 | 0.00 | 0.00 | 52 | 1013.0 |
| 20260503210105 | 17 | 65 | 6.4 | 14.5 | 0.00 | 0.00 | 0.00 | 52 | 1012.9 |
| 20260503205559 | 17 | 13 | 3.2 | 12.9 | 0.00 | 0.00 | 0.00 | 52 | 1013.0 |
| 20260503205100 | 17 | 65 | 6.4 | 19.3 | 0.00 | 0.00 | 0.00 | 52 | 1012.8 |
| 20260503204558 | 17 | 42 | 6.4 | 19.3 | 0.00 | 0.00 | 0.00 | 52 | 1012.9 |
| 20260503204200 | 17 | 337 | 3.2 | 14.5 | 0.00 | 0.00 | 0.00 | 52 | 1013.0 |
| 20260503203558 | 17 | 19 | 3.2 | 14.5 | 0.00 | 0.00 | 0.00 | 52 | 1012.9 |
| 20260503203103 | 17 | 82 | 4.8 | 12.9 | 0.00 | 0.00 | 0.00 | 52 | 1012.9 |
| 20260503202558 | 17 | 264 | 1.6 | 9.7 | 0.00 | 0.00 | 0.00 | 51 | 1013.0 |
| 20260503202058 | 17 | 24 | 1.6 | 9.7 | 0.00 | 0.00 | 0.00 | 51 | 1012.9 |
| 20260503201557 | 17 | 315 | 3.2 | 14.5 | 0.00 | 0.00 | 0.00 | 51 | 1013.0 |
| 20260503201056 | 17 | 5 | 3.2 | 12.9 | 0.00 | 0.00 | 0.00 | 51 | 1012.9 |
| 20260503200559 | 17 | 74 | 3.2 | 12.9 | 0.00 | 0.00 | 0.00 | 51 | 1012.9 |
| 20260503200058 | 17 | 51 | 4.8 | 12.9 | 0.00 | 0.00 | 0.00 | 51 | 1012.9 |
| 20260503195555 | 18 | 42 | 4.8 | 20.9 | 0.00 | 0.00 | 0.00 | 50 | 1013.0 |
| 20260503195055 | 18 | 178 | 4.8 | 20.9 | 0.00 | 0.00 | 0.00 | 50 | 1012.9 |
| 20260503194555 | 18 | 311 | 6.4 | 14.5 | 0.00 | 0.00 | 0.00 | 50 | 1013.0 |
| 20260503194058 | 18 | 256 | 4.8 | 17.7 | 0.00 | 0.00 | 0.00 | 50 | 1013.0 |
| 20260503193555 | 18 | 109 | 6.4 | 17.7 | 0.00 | 0.00 | 0.00 | 49 | 1012.9 |
| 20260503193103 | 18 | 69 | 4.8 | 12.9 | 0.00 | 0.00 | 0.00 | 49 | 1012.9 |
| 20260503192554 | 18 | 17 | 4.8 | 12.9 | 0.00 | 0.00 | 0.00 | 49 | 1013.2 |
| 20260503192053 | 18 | 330 | 4.8 | 12.9 | 0.00 | 0.00 | 0.00 | 49 | 1012.8 |
| 20260503191556 | 18 | 294 | 3.2 | 11.3 | 0.00 | 0.00 | 0.00 | 49 | 1012.9 |
| 20260503191054 | 18 | 204 | 3.2 | 9.7 | 0.00 | 0.00 | 0.00 | 48 | 1012.8 |
| 20260503190553 | 18 | 275 | 3.2 | 11.3 | 0.00 | 0.00 | 0.00 | 48 | 1012.8 |
| 20260503190055 | 18 | 328 | 3.2 | 8.0 | 0.00 | 0.00 | 0.00 | 48 | 1012.7 |
| 20260503185552 | 18 | 67 | 3.2 | 9.7 | 0.00 | 0.00 | 0.00 | 48 | 1012.8 |
| 20260503185055 | 18 | 338 | 3.2 | 9.7 | 0.00 | 0.00 | 0.00 | 47 | 1012.8 |